[[{"header":{"parameterUnit":"m.s-1","parameterCategory":1,"la1":30.2991,"la2":30.254,"lo1":-89.0895,"lo2":-89.0444,"dy":0.0017,"dx":0.0017,"nx":28,"ny":28,"refTime":"2023-09-04T03:00:00:Z","depth":0,"parameterNumber":2,"parameterNumberName":"U-component_of_WINDS"},"data":[0,0,0,0,0,0,0,0,0,0,0,0,0,0,0,0,0,0,0,0,0,0,0,0,0,0,0,0,0,0,0,0,0,0,0,0,0,0,0,0,0,0,0,0,0,0,0,0,0,0,0,0,0,0,0,0,0,0,-3.9635,-3.9636,0,-3.9691,-3.9691,-3.9692,-3.9686,-3.9685,-3.9684,-3.9683,-3.9737,-3.9739,-3.9741,0,0,0,0,0,0,0,0,0,0,0,0,0,-3.9521,-3.9523,-3.9635,-3.9636,-3.9637,-3.9691,-3.9691,-3.9692,-3.9686,-3.9685,-3.9684,-3.9683,-3.9736,-3.9739,-3.9741,0,0,0,0,0,0,0,0,0,0,0,0,0,-3.9573,-3.9524,-3.9635,-3.964,-3.9641,-3.9691,-3.9691,-3.9692,-3.9686,-3.9685,-3.9683,-3.9682,-3.9735,-3.9738,-3.9742,-3.9789,0,0,-3.9752,-3.9754,0,0,0,0,0,0,0,0,-3.957,-3.9577,-3.9639,-3.964,-3.9641,-3.968,-3.9671,-3.9725,-3.9686,-3.9669,-3.9683,-3.9681,-3.9719,-3.9723,-3.9737,-3.9792,-3.9794,-3.9752,-3.9755,-3.9756,-3.9757,0,0,0,0,0,0,0,-3.9567,-3.9575,-3.9657,-3.9639,-3.9641,-3.9639,-3.9645,-3.9681,-3.97,-3.967,-3.967,-3.9677,-3.9719,-3.9733,-3.9738,-3.9795,-3.9752,-3.9755,-3.9757,-3.9759,-3.9892,-3.9893,0,0,0,0,0,0,-3.9562,-3.9572,-3.9655,-3.9659,-3.9602,-3.9642,-3.9648,-3.9669,-3.97,-3.9704,-3.9678,-3.9676,-3.9728,-3.9734,-3.974,-3.9797,-3.9756,-3.9759,-3.9761,-3.989,-3.9892,-3.9893,0,0,0,0,0,0,-3.956,-3.957,-3.9653,-3.9615,-3.9626,-3.9645,-3.9668,-3.967,-3.9685,-3.9706,-3.9709,-3.9689,-3.9727,-3.9735,-3.9777,-3.9799,-3.9761,-3.9764,-3.9888,-3.9891,-3.9893,-3.9912,0,0,0,0,0,0,-3.9556,-3.9569,-3.9587,-3.9616,-3.9628,-3.969,-3.9669,-3.9673,-3.9691,-3.9689,-3.9717,-3.972,-3.9727,-3.9772,-3.9781,-3.9803,-3.9766,-3.9886,-3.9889,-3.9892,-3.9909,-3.9914,-3.9919,0,0,0,0,0,-3.9552,-3.959,-3.9588,-3.9599,-3.9652,-3.9692,-3.9698,-3.9706,-3.9693,-3.9711,-3.9725,-3.9719,-3.9795,-3.9777,-3.9786,-3.9809,-3.9885,-3.9889,-3.9892,-3.9907,-3.9913,-3.9919,0,0,0,0,0,0,-3.9562,-3.9594,-3.9592,-3.964,-3.9664,-3.969,-3.9714,-3.9712,-3.9739,-3.9736,-3.9744,-3.975,-3.9793,-3.9805,-3.9784,-3.9857,-3.9838,-3.9844,-3.9847,-3.9853,-3.9858,-3.9853,-3.9769,0,0,0,0,0,-3.957,-3.9601,-3.9626,-3.9666,-3.9678,-3.9694,-3.9712,-3.9716,-3.974,-3.9749,-3.9766,-3.9788,-3.9817,-3.9836,-3.9864,-3.9912,-3.9917,-3.9932,-3.9937,-3.9941,-3.9945,-3.9971,-3.9978,-3.9905,-3.9905,-3.9904,0,0,-3.9587,-3.9608,-3.9626,-3.9669,-3.9687,-3.9718,-3.9702,-3.9735,-3.9758,-3.9754,-3.9795,-3.9808,-3.9834,-3.9879,-3.99,-3.9891,-3.9967,-3.9945,-3.9948,-3.995,-3.9975,-3.9982,-3.9988,-3.9907,-3.9906,-3.9906,0,0,-3.9632,-3.9651,-3.9687,-3.9706,-3.9734,-3.9745,-3.9754,-3.9781,-3.979,-3.9832,-3.9829,-3.9856,-3.9906,-3.9924,-3.994,-3.9993,-3.9989,-4.0002,-4.0026,-4.0051,-4.0057,-4.0062,-4.008,-4.0087,-4.0007,-4.0007,-4.0007,0,-3.9648,-3.9695,-3.9705,-3.9738,-3.9757,-3.9756,-3.9792,-3.9809,-3.9845,-3.9857,-3.9848,-3.991,-3.9928,-3.9977,-3.999,-4.0003,-4.0013,-3.9998,-4.0056,-4.0061,-4.0066,-4.0083,-4.009,-4.0008,-4.0008,-4.0008,-4.0008,0,-3.9713,-3.9746,-3.9771,-3.9807,-3.9828,-3.9863,-3.9877,-3.9897,-3.99,-3.9911,-3.9954,-3.9975,-4.0007,-4.0019,-4.0021,-4.0069,-4.0062,-4.0054,-4.0035,-4.0074,-4.009,-4.0097,-4.001,-4.0009,-4.0009,-4.0009,0,0,-3.9765,-3.9807,-3.9815,-3.9832,-3.9864,-3.9889,-3.9923,-3.9955,-3.9972,-3.9997,-4.0026,-4.0069,-4.0061,-4.0079,-4.0084,-4.0106,-4.0147,-4.0096,-4.0096,-4.0103,-4.0199,-4.0204,-4.0212,-4.0145,-4.0146,-4.0147,-4.0197,0,-3.9812,-3.9874,-3.9884,-3.9937,-3.9967,-3.9968,-3.9997,-4.002,-4.0032,-4.0058,-4.0071,-4.0101,-4.009,-4.0101,-4.0123,-4.0137,-4.0166,-4.0134,-4.017,-4.0171,-4.0162,-4.022,-4.0226,-4.0271,-4.0203,-4.0204,-4.0205,0,-3.9876,-3.9904,-3.996,-3.9989,-4.0002,-4.0028,-4.0059,-4.0085,-4.011,-4.0117,-4.0138,-4.014,-4.0175,-4.0156,-4.0204,-4.0182,-4.0198,-4.0207,-4.0209,-4.0211,-4.0189,-4.0223,-4.0286,-4.0292,-4.0215,-4.0215,-4.0214,0,-3.9906,-3.9958,-3.9999,-4.0013,-4.0047,-4.0066,-4.0081,-4.0105,-4.0124,-4.0151,-4.0163,-4.0193,-4.0209,-4.0232,-4.0242,-4.0228,-4.0289,-4.0271,-4.0295,-4.0294,-4.0306,-4.0305,-4.0371,-4.0319,-4.0319,-4.0318,-4.0318,0,-3.9958,-3.9992,-4.0013,-4.0038,-4.0076,-4.0088,-4.0125,-4.0139,-4.0161,-4.0188,-4.0191,-4.0216,-4.0228,-4.0255,-4.0264,-4.0301,-4.0309,-4.0315,-4.0316,-4.0314,-4.0313,-4.0323,-4.0319,-4.032,-4.032,-4.0319,-4.0319,0,-3.9997,-4.0013,-4.0057,-4.0087,-4.0095,-4.0122,-4.0146,-4.017,-4.0183,-4.0217,-4.0226,-4.0245,-4.0277,-4.029,-4.0328,-4.0334,-4.0377,-4.0377,-4.0369,-4.0369,-4.0391,-4.0389,-4.0465,-4.0475,-4.0417,-4.0418,-4.0418,0,-4.0028,-4.0055,-4.0088,-4.0107,-4.0122,-4.0153,-4.0172,-4.0185,-4.0205,-4.0236,-4.0256,-4.0288,-4.0315,-4.0365,-4.0382,-4.0412,-4.0411,-4.0436,-4.0416,-4.0412,-4.041,-4.0408,-4.041,-4.0439,-4.044,-4.044,-4.0441,0,-4.0082,-4.0088,-4.0117,-4.0149,-4.0172,-4.0198,-4.0222,-4.0237,-4.0253,-4.0276,-4.0309,-4.033,-4.037,-4.0401,-4.0432,-4.0447,-4.0446,-4.0448,-4.0454,-4.0451,-4.0445,-4.0448,-4.0377,-4.0445,-4.0445,-4.0444,-4.0444,-4.0444,-4.0117,-4.0141,-4.0168,-4.02,-4.022,-4.0243,-4.0267,-4.0283,-4.0311,-4.0345,-4.0351,-4.0386,-4.0411,-4.0452,-4.0468,-4.0496,-4.0489,-4.0499,-4.0502,-4.0504,-4.0505,-4.0442,-4.0501,-4.0501,-4.0501,-4.0501,-4.0501,0,-4.0169,-4.0187,-4.0216,-4.0251,-4.0276,-4.0276,-4.0303,-4.0323,-4.0355,-4.0379,-4.0405,-4.0443,-4.0474,-4.0494,-4.0525,-4.0542,-4.0543,-4.055,-4.0548,-4.0551,-4.0509,-4.05,-4.0549,-4.0549,-4.0549,-4.0549,-4.0549,-4.0549,-4.0199,-4.0239,-4.0249,-4.0299,-4.0316,-4.0351,-4.0367,-4.0388,-4.0407,-4.045,-4.0476,-4.0489,-4.0511,-4.0544,-4.0572,-4.0577,-4.0588,-4.0595,-4.0599,-4.0559,-4.0554,-4.0549,-4.054,-4.0598,-4.0598,-4.0639,-4.0639,-4.064]},{"header":{"parameterUnit":"m.s-1","parameterCategory":1,"la1":30.2991,"la2":30.254,"lo1":-89.0895,"lo2":-89.0444,"dy":0.0017,"dx":0.0017,"nx":28,"ny":28,"refTime":"2023-09-04T03:00:00:Z","depth":0,"parameterNumber":3,"parameterNumberName":"V-component_of_WINDS"},"data":[0,0,0,0,0,0,0,0,0,0,0,0,0,0,0,0,0,0,0,0,0,0,0,0,0,0,0,0,0,0,0,0,0,0,0,0,0,0,0,0,0,0,0,0,0,0,0,0,0,0,0,0,0,0,0,0,0,0,3.0482,3.0482,0,3.0488,3.0488,3.0488,3.0483,3.0483,3.0483,3.0482,3.0488,3.0488,3.0488,0,0,0,0,0,0,0,0,0,0,0,0,0,3.0468,3.0468,3.0482,3.0482,3.0482,3.0488,3.0488,3.0488,3.0483,3.0483,3.0483,3.0482,3.0487,3.0488,3.0488,0,0,0,0,0,0,0,0,0,0,0,0,0,3.0474,3.0468,3.0482,3.0481,3.048,3.0487,3.0488,3.0488,3.0483,3.0483,3.0483,3.0482,3.0487,3.0488,3.0488,3.0497,0,0,3.049,3.049,0,0,0,0,0,0,0,0,3.0473,3.0474,3.0481,3.0481,3.0481,3.0484,3.0484,3.0491,3.0483,3.0482,3.0482,3.0482,3.0487,3.0487,3.0489,3.0497,3.0497,3.049,3.049,3.049,3.049,0,0,0,0,0,0,0,3.0473,3.0474,3.0484,3.0481,3.0481,3.048,3.048,3.0486,3.0486,3.0482,3.0482,3.0483,3.0487,3.0488,3.0489,3.0497,3.049,3.049,3.049,3.0491,3.0514,3.0514,0,0,0,0,0,0,3.0473,3.0473,3.0484,3.0484,3.0476,3.048,3.0481,3.0483,3.0486,3.0486,3.0483,3.0482,3.0488,3.0488,3.0489,3.0499,3.049,3.0491,3.0491,3.0513,3.0514,3.0514,0,0,0,0,0,0,3.0472,3.0474,3.0484,3.0479,3.048,3.0481,3.0484,3.0484,3.0485,3.0486,3.0486,3.0485,3.0488,3.0488,3.0495,3.0499,3.0491,3.0491,3.0513,3.0513,3.0514,3.052,0,0,0,0,0,0,3.0472,3.0473,3.0477,3.0479,3.048,3.049,3.0484,3.0484,3.0486,3.0486,3.0488,3.0488,3.0487,3.0494,3.0496,3.05,3.0492,3.0512,3.0513,3.0514,3.0519,3.0521,3.0522,0,0,0,0,0,3.0471,3.0478,3.0477,3.0478,3.0484,3.049,3.0491,3.049,3.0487,3.049,3.0491,3.0488,3.0499,3.0495,3.0496,3.0501,3.0512,3.0513,3.0514,3.0519,3.052,3.0522,0,0,0,0,0,0,3.0476,3.0478,3.0477,3.0485,3.0487,3.0489,3.0493,3.0492,3.0495,3.0494,3.0493,3.0494,3.0501,3.0502,3.0497,3.051,3.0505,3.0506,3.0509,3.051,3.0511,3.0511,3.0492,0,0,0,0,0,3.0478,3.0482,3.0484,3.0491,3.0492,3.0492,3.0495,3.0494,3.0497,3.0498,3.0499,3.0501,3.0505,3.0508,3.0512,3.052,3.052,3.0524,3.0525,3.0526,3.0526,3.0531,3.0532,3.0516,3.0516,3.0516,0,0,3.0482,3.0484,3.0486,3.0492,3.0493,3.0498,3.0493,3.0498,3.0502,3.0498,3.0505,3.0506,3.0508,3.0516,3.0519,3.0517,3.0531,3.0527,3.0527,3.0528,3.0532,3.0533,3.0535,3.0517,3.0517,3.0517,0,0,3.0491,3.0493,3.0499,3.0501,3.0504,3.0504,3.0506,3.0508,3.0509,3.0515,3.0513,3.0517,3.0524,3.0526,3.0528,3.0539,3.0537,3.0541,3.0546,3.0551,3.0552,3.0553,3.0557,3.0558,3.0541,3.0541,3.0541,0,3.0495,3.0502,3.0502,3.0507,3.0509,3.0507,3.0513,3.0515,3.0519,3.0521,3.0518,3.0527,3.0529,3.0537,3.054,3.0542,3.0543,3.054,3.0552,3.0553,3.0554,3.0557,3.0559,3.0542,3.0542,3.0542,3.0542,0,3.0507,3.0512,3.0516,3.0521,3.0524,3.0529,3.053,3.0533,3.0532,3.0533,3.054,3.0542,3.0546,3.0548,3.0547,3.0556,3.0554,3.0552,3.0547,3.0556,3.0559,3.056,3.0542,3.0542,3.0542,3.0542,0,0,3.0519,3.0523,3.0525,3.0527,3.0531,3.0534,3.054,3.0544,3.0547,3.055,3.0555,3.0561,3.0559,3.0561,3.0561,3.0565,3.0573,3.0562,3.0562,3.0563,3.0583,3.0584,3.0586,3.0572,3.0572,3.0573,3.0583,0,3.0528,3.0538,3.0538,3.0547,3.0551,3.055,3.0555,3.0557,3.0558,3.0562,3.0564,3.0568,3.0565,3.0566,3.057,3.0571,3.0577,3.0571,3.0576,3.0576,3.0575,3.0588,3.0589,3.0599,3.0584,3.0584,3.0584,0,3.054,3.0544,3.0553,3.0557,3.0558,3.0563,3.0567,3.0571,3.0574,3.0575,3.0578,3.0577,3.0583,3.0578,3.0586,3.0582,3.0584,3.0585,3.0585,3.0585,3.058,3.0588,3.0602,3.0603,3.0586,3.0586,3.0586,0,3.0547,3.0554,3.0561,3.0563,3.0567,3.057,3.0572,3.0575,3.0578,3.0582,3.0584,3.0588,3.059,3.0594,3.0594,3.0591,3.0602,3.0598,3.0602,3.0602,3.0604,3.0604,3.0618,3.0607,3.0607,3.0607,3.0607,0,3.0557,3.0563,3.0564,3.0569,3.0575,3.0576,3.0582,3.0584,3.0586,3.0591,3.059,3.0594,3.0594,3.0599,3.0599,3.0605,3.0607,3.0607,3.0607,3.0607,3.0607,3.0608,3.0607,3.0607,3.0607,3.0607,3.0607,0,3.0565,3.0567,3.0574,3.0578,3.0579,3.0584,3.0587,3.0591,3.0592,3.0597,3.0599,3.0601,3.0606,3.0606,3.0612,3.0613,3.062,3.062,3.0619,3.0619,3.0623,3.0623,3.0638,3.064,3.0628,3.0628,3.0628,0,3.0571,3.0576,3.058,3.0583,3.0585,3.059,3.0593,3.0594,3.0597,3.0602,3.0605,3.061,3.0614,3.0622,3.0624,3.0628,3.0628,3.0633,3.0628,3.0628,3.0627,3.0627,3.0627,3.0633,3.0634,3.0634,3.0634,0,3.0582,3.0583,3.0587,3.0592,3.0596,3.06,3.0603,3.0606,3.0607,3.0611,3.0616,3.0619,3.0625,3.063,3.0635,3.0636,3.0635,3.0635,3.0637,3.0636,3.0636,3.0636,3.0621,3.0635,3.0635,3.0635,3.0635,3.0635,3.0589,3.0593,3.0597,3.0602,3.0605,3.0609,3.0613,3.0615,3.0619,3.0624,3.0625,3.063,3.0634,3.064,3.0642,3.0647,3.0645,3.0647,3.0647,3.0647,3.0648,3.0635,3.0647,3.0647,3.0647,3.0647,3.0647,0,3.06,3.0602,3.0607,3.0612,3.0616,3.0615,3.062,3.0623,3.0628,3.0631,3.0636,3.0642,3.0647,3.0649,3.0654,3.0657,3.0656,3.0658,3.0658,3.0658,3.0649,3.0647,3.0658,3.0658,3.0658,3.0658,3.0658,3.0658,3.0605,3.0612,3.0613,3.0622,3.0624,3.063,3.0632,3.0636,3.0638,3.0645,3.065,3.0651,3.0654,3.0659,3.0664,3.0664,3.0666,3.0668,3.0668,3.066,3.0659,3.0657,3.0656,3.0668,3.0668,3.0677,3.0677,3.0677]}]]